Location: T�bingen+AIT
(48.5342°N, 9.0700°E)
Time: 01:50:08
(UTC+02:00)

Envisat - Pass Details

Date: 14 September 2017
Orbit: 764 x 766 km, 98.2° (Epoch: 23 September)

Event Time Altitude Azimuth Distance (km) Brightness Sun altitude
Exits shadow 21:26:21 - 179° (S) 2,610 5.5 -17.9°
Reaches altitude 10° 21:27:09 10° 181° (S) 2,296 5.2 -18.1°
Maximum altitude 21:32:07 57° 259° (W) 904 3.6 -18.8°
Drops below altitude 10° 21:37:08 10° 339° (NNW) 2,312 6.2 -19.5°
Sets 21:39:30 0° 343° (NNW) 3,243 7.0 -19.9°
